Wind_Speed
16 17 18 18 18 18 17 18 20 22 23 23 23 22 22 22 22 22 23 23 23 23 23 24 24 24 23 21 20 21 21 22 22 22 22 22 22 22 23 23 23 23 23 24 23 23 22 21 21 20 20 20 20 21 21 21 22 22 22 21 20 19 18 17 16 15 15 15 15 15 14 13 12 12 13 13 13 14 15 15 16 16 17 17 17 17
16 16 17 17 17 17 17 18 19 21 22 23 23 23 23 23 24 24 24 24 24 24 25 26 26 25 24 22 21 21 21 22 22 22 22 22 22 22 23 23 23 23 23 23 23 23 22 22 21 21 21 21 21 21 21 20 21 21 20 20 19 18 17 16 16 15 14 14 14 13 13 13 12 13 13 14 14 15 15 15 16 16 17 17 18 18
16 16 16 16 16 17 17 18 19 20 22 23 23 22 23 23 24 24 24 24 24 24 25 25 26 25 24 23 22 21 21 22 22 22 22 22 22 22 22 22 22 22 22 22 22 22 22 22 21 21 21 21 21 21 21 20 20 20 19 18 18 17 16 15 15 14 14 13 13 13 13 13 13 13 14 15 15 15 15 16 16 16 17 17 17 18
16 15 15 15 15 15 16 17 19 22 23 24 23 22 22 22 22 23 23 23 24 24 24 24 24 24 24 24 23 22 22 23 23 23 22 22 22 22 22 22 22 21 21 21 21 21 21 21 21 20 20 20 20 20 20 20 20 19 19 18 17 17 17 15 14 13 13 13 13 13 13 14 14 15 15 15 15 15 15 16 16 16 17 17 18 18
15 14 14 14 14 15 15 16 19 23 24 24 22 21 20 20 21 21 22 23 23 24 25 24 23 23 24 25 25 24 23 23 23 23 22 22 22 22 22 22 22 22 21 21 21 20 20 20 20 19 19 19 19 19 19 19 20 20 20 19 19 18 17 15 14 13 13 13 13 14 14 14 14 15 15 15 15 16 16 16 16 17 17 18 19 19
14 13 13 13 14 14 15 16 19 22 23 23 21 20 20 20 20 20 21 22 23 24 24 24 23 23 23 25 25 25 25 25 24 23 22 22 22 23 23 23 23 22 22 22 21 20 20 19 19 18 18 18 18 18 19 20 21 21 21 20 20 19 17 16 14 14 13 12 13 13 14 14 15 15 15 15 16 16 16 16 16 17 18 18 19 20
12 12 13 12 13 13 14 15 18 21 22 21 19 19 19 20 20 20 20 20 22 23 23 23 23 23 23 25 26 27 28 27 25 23 23 22 23 23 23 23 23 23 23 22 22 21 21 20 20 19 19 19 19 19 20 21 22 22 22 22 21 19 17 15 14 13 12 11 12 13 14 14 15 15 15 15 15 16 16 16 16 17 18 18 19 20
11 12 12 13 13 13 14 15 17 20 22 21 19 18 19 19 20 20 20 20 21 22 23 23 23 23 23 25 27 28 29 28 27 25 23 23 23 23 23 23 23 23 23 22 22 22 22 22 21 21 20 20 20 21 21 22 23 23 24 24 22 20 18 15 13 12 10 10 11 13 13 14 14 14 14 15 15 15 15 16 16 16 17 18 19 20
12 12 12 13 14 14 14 15 16 19 21 21 19 18 18 18 19 19 20 20 21 22 22 23 23 23 23 24 26 28 29 28 27 25 23 23 22 22 23 23 23 23 22 22 21 21 22 22 22 21 21 20 21 21 22 23 24 24 24 24 23 20 18 15 12 9 8 9 11 12 13 13 14 14 14 14 15 15 16 16 16 17 17 18 19 20
12 12 12 13 15 15 15 15 16 18 20 19 18 17 16 17 18 18 19 20 20 21 22 22 22 21 21 23 26 28 29 29 28 26 23 22 21 22 22 23 23 22 22 21 21 21 22 22 22 21 21 21 21 22 23 23 24 24 25 24 23 20 16 13 10 7 7 9 11 12 13 14 14 14 14 14 15 16 16 17 17 17 18 18 19 20
12 13 13 13 15 16 16 16 16 18 20 19 18 17 17 17 17 17 17 18 19 20 20 20 20 19 18 21 24 28 29 30 30 29 26 24 23 23 23 24 24 23 22 21 21 21 22 22 22 22 22 22 23 23 24 24 24 24 24 24 23 21 17 12 9 7 9 10 11 13 14 14 15 15 15 15 15 16 16 17 17 18 18 19 19 20
12 13 14 14 15 17 18 18 18 18 19 18 18 17 17 18 18 17 15 15 17 18 18 18 18 17 15 18 23 26 29 29 29 29 28 25 24 25 26 27 26 25 23 22 22 22 22 22 22 22 22 23 24 25 25 25 24 23 22 22 22 22 20 17 14 13 13 13 13 14 14 15 15 16 16 16 16 16 17 17 18 18 19 19 20 20
13 14 15 15 16 16 17 18 18 18 18 17 16 16 15 17 17 16 14 14 15 16 16 17 17 15 13 16 21 26 28 29 29 29 27 25 24 25 27 27 27 26 25 24 24 23 23 23 23 22 22 23 24 25 25 25 24 23 21 20 20 20 20 19 18 17 16 15 15 15 15 16 16 17 17 17 17 18 18 18 19 19 19 20 20 20
15 16 16 16 16 16 17 17 17 16 16 16 15 14 14 15 16 15 14 14 14 15 15 16 16 15 12 15 21 26 29 30 30 28 26 24 23 24 27 27 27 26 26 25 24 24 23 23 23 23 23 24 24 25 25 25 24 23 21 20 19 19 18 18 18 17 17 16 16 16 17 17 17 18 18 18 18 19 19 19 20 20 20 21 21 21
15 16 15 14 14 15 16 16 15 15 15 16 15 14 14 14 15 14 14 14 14 15 16 16 17 15 12 14 19 25 30 30 29 27 25 23 23 24 27 28 28 27 26 25 24 24 23 23 24 24 23 24 24 24 25 25 25 24 23 22 21 20 19 19 18 18 18 18 17 18 18 18 18 18 18 19 19 19 20 20 21 21 21 21 21 21
15 15 14 13 13 13 14 14 14 14 15 16 16 14 13 13 14 13 13 13 14 15 16 16 16 15 13 14 18 24 29 29 28 25 23 22 22 24 27 28 28 26 26 25 24 24 24 24 24 23 23 23 23 23 24 24 25 25 25 24 23 22 22 21 20 20 19 19 19 19 19 19 19 19 19 19 20 20 20 21 21 21 21 21 21 21
14 14 14 14 12 11 11 13 15 15 16 17 16 14 12 12 12 12 12 12 12 13 14 14 12 11 11 13 17 22 27 28 26 23 22 21 22 24 27 28 26 25 25 25 25 25 24 24 24 23 23 22 22 23 23 24 24 24 24 24 24 23 23 22 21 21 21 20 20 20 20 20 20 20 20 20 20 20 20 21 22 22 22 22 22 22
14 13 13 13 13 11 10 12 14 16 17 18 17 15 12 11 11 11 12 12 12 12 12 12 11 9 9 12 15 20 25 27 25 22 21 21 21 24 27 27 26 24 25 25 25 25 24 24 24 23 22 22 22 22 22 23 23 23 23 23 23 23 22 22 22 21 21 21 21 20 20 20 20 20 20 20 20 20 20 21 21 21 22 22 22 22
13 13 13 13 13 12 11 12 14 16 17 18 18 16 14 12 12 12 12 11 11 11 11 11 12 12 12 12 16 20 23 26 25 22 20 20 20 22 26 27 26 25 25 25 25 25 25 25 24 23 22 22 22 22 22 22 22 23 23 23 23 22 22 22 21 21 21 21 20 20 20 20 20 20 20 20 20 20 20 21 21 22 22 22 22 22
13 14 14 14 14 13 12 12 14 15 17 18 19 17 14 13 13 13 12 12 11 11 11 12 13 13 14 14 17 19 22 24 24 22 19 19 19 21 24 26 25 24 25 25 25 26 25 25 25 24 24 22 22 21 21 21 22 22 22 22 22 22 22 21 21 20 20 20 20 20 20 20 20 20 20 20 20 20 21 21 21 22 22 22 22 22
13 13 15 15 14 13 13 13 14 15 17 18 19 18 16 14 14 13 13 13 13 13 13 14 15 15 16 16 18 19 21 22 22 20 18 18 19 20 23 24 24 24 24 25 26 27 26 25 25 25 24 22 21 21 21 21 21 22 22 23 22 22 21 20 20 20 20 20 20 20 20 20 20 20 20 21 21 21 21 21 22 22 22 22 22 21
13 13 14 15 15 14 14 14 15 15 17 18 18 18 16 14 14 13 13 14 14 14 15 16 16 16 15 16 17 19 20 21 21 20 17 16 18 21 22 23 23 22 23 24 27 28 26 25 24 25 24 23 22 21 21 21 22 22 23 23 23 22 21 20 20 20 21 21 21 21 20 21 21 21 21 21 21 21 21 21 21 21 21 21 21 20
14 14 14 14 15 15 15 15 16 16 16 17 17 17 15 13 12 12 13 13 14 14 16 16 16 15 14 14 16 18 20 21 22 21 17 15 16 20 22 23 22 21 21 24 27 28 27 24 23 24 24 24 23 22 22 22 22 22 23 23 23 23 22 21 21 21 21 21 21 21 21 21 21 21 21 21 21 21 21 21 21 21 21 21 20 19
14 14 14 14 14 14 15 15 16 16 16 16 16 16 15 13 11 10 10 12 13 14 16 16 16 15 14 14 16 18 20 21 22 22 18 15 16 19 21 22 21 20 21 24 27 28 26 24 22 23 24 25 25 24 22 22 22 23 23 24 23 23 22 22 22 22 22 22 22 21 21 21 21 21 21 21 21 21 21 20 20 21 21 20 19 19
14 14 14 14 14 14 14 15 15 15 15 16 17 17 17 16 14 13 14 15 16 16 17 17 16 15 15 15 16 18 21 21 22 22 18 16 16 18 20 21 21 20 21 23 26 26 25 23 22 22 24 25 26 25 23 22 22 23 24 24 24 23 23 22 22 22 22 22 22 22 21 21 21 21 21 21 21 21 20 20 20 21 21 20 19 18
13 13 13 13 14 14 15 15 16 16 16 16 17 19 20 20 19 19 20 20 19 18 17 16 15 15 16 16 17 18 20 20 22 23 20 17 16 17 19 21 21 21 21 22 24 24 23 21 20 21 23 25 26 26 25 23 23 23 24 25 24 23 23 23 23 23 23 22 22 22 21 21 21 21 21 21 21 20 20 20 21 21 20 19 19 19
13 13 13 14 14 14 15 16 16 17 17 17 17 19 20 22 22 22 20 20 18 17 16 14 14 14 16 16 16 17 19 20 21 23 22 18 16 15 17 20 21 21 21 21 22 21 19 18 18 20 23 25 26 26 26 24 24 24 24 25 25 24 23 23 23 23 23 23 22 22 22 21 22 22 21 21 20 20 20 21 21 21 20 19 20 20
12 12 13 13 14 14 15 16 17 17 18 18 18 18 20 22 22 20 18 18 17 15 13 13 12 12 13 14 15 16 17 18 20 23 23 19 15 14 17 19 20 21 20 21 20 19 17 16 17 19 22 25 26 26 26 26 26 26 26 26 25 24 23 23 24 24 23 23 22 22 22 22 22 22 22 21 20 20 20 21 21 21 20 20 20 21
11 11 12 12 13 14 15 16 17 17 18 18 18 19 20 20 20 19 18 17 16 14 12 12 12 11 12 14 15 15 15 17 20 23 24 19 15 15 18 19 19 20 20 20 20 19 16 15 16 19 22 24 25 26 26 26 27 28 28 28 26 25 24 24 24 24 23 23 22 22 22 22 22 22 22 21 20 20 21 21 21 21 21 21 21 21
11 11 12 12 13 14 15 16 17 18 18 18 19 19 19 19 18 18 18 18 17 14 12 11 11 12 12 13 13 12 13 17 20 23 23 19 15 16 18 19 19 20 20 18 16 15 15 17 18 19 21 23 25 25 25 25 26 28 29 29 28 26 25 25 25 24 23 23 22 22 23 23 23 22 22 21 21 20 21 21 21 21 21 22 21 21
13 13 13 14 13 14 15 16 17 18 19 19 19 19 19 18 17 17 17 18 17 15 12 11 11 11 12 11 8 6 8 16 20 22 22 18 15 16 17 17 18 19 18 16 11 7 10 15 19 21 22 23 24 24 24 24 25 26 28 28 28 27 26 26 25 24 23 23 22 22 23 23 23 23 22 21 21 21 21 21 21 21 22 21 21 20
13 14 14 14 14 15 15 16 17 19 20 20 20 20 19 18 17 16 16 16 17 16 14 13 12 12 11 10 7 6 9 15 19 22 22 17 15 15 16 16 17 17 17 15 12 8 5 10 17 21 22 22 22 23 23 23 23 25 26 27 27 27 26 26 26 25 23 23 22 22 23 23 23 22 21 21 20 20 21 21 21 21 21 21 21 20
13 14 14 15 15 16 17 18 19 20 21 22 22 21 20 18 17 16 15 15 15 16 15 14 13 12 11 11 10 10 12 16 19 20 21 18 16 15 16 16 17 17 17 16 15 12 9 11 15 19 21 21 20 21 21 21 22 23 24 25 25 26 26 27 26 25 24 23 23 23 23 23 23 23 22 21 20 21 21 21 20 20 20 21 21 21
14 15 16 16 17 17 18 19 20 21 22 22 22 22 21 19 17 16 15 14 14 15 15 14 13 12 11 11 10 11 13 17 19 20 20 19 17 15 16 16 16 17 17 16 15 14 13 14 16 17 18 20 20 20 20 20 21 22 23 23 24 25 26 26 26 25 24 23 23 23 23 24 24 23 23 22 21 21 21 21 20 20 20 20 21 21
16 17 18 19 19 20 20 21 22 22 23 23 23 23 21 20 18 16 15 14 14 14 14 13 12 12 11 10 10 11 14 17 19 20 20 20 18 16 15 15 16 16 16 15 15 15 14 15 16 16 16 18 19 20 19 19 20 21 22 23 23 24 25 26 25 25 24 23 23 23 24 25 24 24 24 23 22 21 21 21 20 20 20 20 20 21
18 20 21 21 21 21 21 21 22 23 23 23 23 23 22 20 18 16 15 14 14 13 13 12 11 11 11 11 11 12 14 17 19 20 20 20 20 18 15 15 16 17 16 15 15 14 14 15 16 16 16 16 17 19 20 21 21 22 23 23 24 24 25 25 25 24 24 23 23 23 24 24 24 24 24 24 23 22 21 21 20 20 20 20 20 20
19 20 21 21 21 21 21 21 21 22 23 23 23 23 22 20 18 16 15 14 14 13 13 12 11 10 10 11 12 13 15 17 18 19 19 20 20 18 15 15 17 17 16 16 15 15 14 14 15 15 15 15 15 17 20 22 23 23 23 24 24 24 24 24 24 24 23 23 23 23 23 23 24 24 25 25 24 23 23 22 21 21 21 21 21 20
20 19 20 20 21 21 21 21 21 21 22 22 22 22 22 21 19 17 16 15 15 15 14 13 11 10 10 11 12 14 15 17 18 18 19 20 21 20 18 17 18 18 18 17 16 15 14 13 12 12 13 15 16 18 19 21 22 23 24 24 23 23 23 23 24 24 24 23 23 23 23 23 24 24 25 25 24 24 24 24 23 23 23 23 23 22
19 19 19 19 20 20 20 20 20 20 20 21 21 22 22 21 19 17 16 15 15 15 15 14 13 12 11 12 13 15 16 17 18 18 19 20 21 21 20 20 20 20 20 20 18 16 14 12 11 11 12 14 16 18 19 20 21 23 24 24 24 23 22 23 23 24 24 24 24 24 24 24 25 25 24 24 23 23 23 23 23 23 23 24 24 24
18 19 19 18 19 19 19 19 19 19 20 21 22 22 22 22 21 19 17 17 16 16 15 14 13 13 12 13 14 16 17 17 18 19 19 20 21 21 22 22 22 22 22 21 20 18 16 14 13 13 13 14 15 16 18 20 21 22 23 22 22 22 23 23 23 24 24 24 24 23 23 24 24 24 23 23 23 22 22 22 23 22 22 22 23 24
17 19 19 18 19 19 19 19 19 19 20 22 23 23 23 23 23 22 21 20 19 18 17 15 15 14 13 13 15 16 17 18 19 19 20 20 21 21 22 23 23 23 23 22 21 20 18 16 15 15 15 15 15 17 18 19 21 21 21 20 20 21 21 21 22 23 24 24 24 23 23 23 24 24 24 23 23 22 21 21 22 22 21 21 22 22
16 18 18 18 19 19 19 20 20 20 21 22 23 24 24 23 22 23 23 22 22 22 21 21 20 19 18 17 17 17 18 19 19 19 20 20 21 22 22 23 23 23 24 23 22 21 20 18 17 16 16 16 16 17 18 20 21 21 19 19 20 21 21 21 22 24 24 24 24 24 24 24 24 24 24 23 23 22 21 21 20 20 20 21 22 22
17 17 18 18 19 19 20 21 21 21 22 23 24 24 24 23 22 22 22 22 22 22 22 22 21 21 21 21 21 20 20 20 20 20 20 20 21 22 23 23 23 23 23 23 22 22 21 19 18 17 16 16 16 17 18 20 21 21 19 19 20 20 18 20 23 25 25 24 24 24 24 24 24 24 23 23 22 22 22 22 21 20 20 22 23 23
16 16 17 18 18 19 20 21 22 22 22 22 23 23 24 23 23 22 22 22 21 21 22 21 20 19 19 20 21 22 22 21 21 20 20 20 21 22 23 24 24 23 23 23 22 21 21 20 19 17 16 15 16 17 19 20 21 21 20 19 19 18 17 19 22 24 24 24 24 24 24 25 25 24 23 22 22 23 23 22 22 22 22 23 24 24
15 16 17 18 19 20 21 21 22 22 22 21 22 23 24 23 23 23 22 22 22 21 21 20 19 17 17 18 19 20 21 22 22 22 21 21 21 22 22 23 23 23 23 22 21 21 20 20 19 18 16 16 16 17 19 21 21 21 20 20 19 18 18 19 21 22 23 24 24 25 26 26 25 24 22 22 22 23 23 22 23 23 23 24 24 25
15 16 17 18 19 19 20 20 21 21 21 21 21 22 23 23 23 23 23 22 22 21 19 19 18 16 16 16 18 19 20 21 22 22 22 22 22 23 23 22 22 22 22 21 20 19 18 17 17 17 17 17 17 18 19 21 21 20 21 21 20 20 20 20 21 21 22 23 24 25 26 26 24 23 21 22 22 22 22 22 22 23 24 25 25 25
15 16 17 18 18 19 19 19 20 21 21 20 20 21 22 22 22 22 23 23 22 20 18 18 17 16 15 16 16 17 18 19 21 22 23 23 23 23 23 23 22 21 21 20 19 18 17 15 14 14 16 16 17 19 21 22 21 20 20 21 21 20 20 20 21 22 22 22 23 25 26 25 24 23 23 22 22 21 22 22 23 23 24 25 25 25
14 15 15 16 17 18 18 18 19 20 21 20 20 20 21 21 20 20 22 23 21 19 17 17 16 16 16 16 16 16 17 18 19 20 21 22 23 23 24 24 23 22 21 20 19 18 16 15 13 12 14 16 17 19 21 22 22 21 20 20 20 20 20 21 21 22 22 22 23 24 24 23 22 22 22 22 22 22 22 23 23 24 25 25 26 26
14 14 14 15 16 17 17 17 18 19 19 19 19 20 20 20 20 20 22 22 21 19 17 17 16 16 16 16 16 17 17 17 18 19 20 21 22 23 24 24 24 23 22 21 20 19 18 16 14 12 12 14 18 20 21 22 22 21 20 19 19 19 20 20 22 22 22 23 24 24 23 21 21 21 20 20 20 21 22 23 24 24 25 26 26 26
14 14 14 15 16 15 15 16 16 17 18 18 18 19 19 19 20 21 22 21 19 17 16 16 16 16 16 16 17 17 18 18 18 19 20 21 22 23 23 24 25 24 24 23 23 22 21 19 16 14 12 13 16 19 21 23 23 22 20 20 19 20 20 21 21 22 22 23 23 23 22 21 21 21 20 19 20 21 22 23 23 24 26 27 27 26
14 15 15 16 15 15 14 15 15 16 16 16 16 17 18 19 20 21 22 21 19 17 16 16 16 15 15 15 16 17 17 18 18 19 19 20 21 22 22 23 24 23 23 23 23 23 22 19 17 16 17 17 17 18 20 22 23 23 21 21 21 20 20 21 22 22 22 22 22 22 22 21 21 20 20 19 19 20 21 22 23 25 26 27 27 27
Wind_Direction
348 349 351 352 355 358 358 358 356 356 359 1 2 1 360 0 2 4 6 8 9 8 8 7 7 7 8 10 9 5 360 357 355 353 352 350 347 346 345 344 343 341 340 340 339 337 336 335 336 338 341 341 340 338 337 337 337 337 335 334 334 334 334 332 331 327 324 322 322 322 323 327 330 332 331 332 331 328 324 324 323 323 323 322 323 323
351 352 354 356 358 358 357 359 360 360 2 3 1 359 357 356 358 1 3 6 6 6 5 4 5 8 10 12 11 6 360 357 355 353 352 350 348 347 345 343 341 339 337 336 335 333 332 332 333 334 336 336 336 335 335 336 337 336 336 337 338 339 339 338 335 333 330 328 327 327 327 328 329 329 329 330 328 326 324 324 324 323 321 320 321 322
354 355 356 358 359 359 357 359 1 2 3 2 359 357 354 354 356 358 1 3 4 4 4 4 6 9 12 13 12 6 359 357 355 354 353 353 351 350 348 345 343 340 338 336 334 333 331 331 330 329 330 330 330 331 332 334 334 335 336 338 340 341 341 338 335 333 333 333 334 334 331 330 330 329 329 329 328 326 327 327 326 323 321 321 321 321
359 358 357 357 358 358 357 358 360 1 1 359 358 356 355 355 355 357 359 1 2 2 3 6 8 11 13 14 12 6 360 358 357 357 357 356 355 354 352 350 348 345 343 340 338 335 333 331 330 328 327 326 326 327 328 331 332 334 335 337 339 340 340 336 333 331 331 332 333 333 331 331 330 330 331 331 330 328 328 329 327 325 324 324 323 323
4 2 359 357 355 355 355 357 359 359 358 358 359 358 357 356 355 356 359 1 2 1 3 6 10 13 15 14 11 7 2 1 1 0 0 360 360 359 358 356 354 352 350 347 343 340 337 334 332 330 328 328 328 329 330 332 334 335 335 335 335 336 335 332 328 326 326 327 329 330 331 333 333 332 332 330 329 328 329 329 327 326 325 325 325 324
4 4 1 359 356 353 353 356 358 357 357 358 360 0 359 356 355 356 358 0 1 1 3 7 12 16 17 15 11 8 7 6 6 4 4 3 3 2 1 0 360 358 357 355 352 349 346 343 341 338 338 338 337 337 337 339 340 338 336 334 333 332 331 327 323 320 320 323 327 330 332 334 334 333 332 330 330 330 331 329 327 325 325 325 324 323
6 5 3 3 360 357 357 357 357 357 358 358 359 0 360 358 357 357 358 360 1 2 4 9 15 18 17 14 11 9 9 10 10 9 7 5 4 4 3 2 2 2 2 1 360 358 357 355 353 352 351 350 349 348 346 345 344 341 338 334 332 330 328 324 319 316 316 320 324 328 331 332 332 332 331 331 330 330 331 329 326 325 324 323 322 321
10 8 7 5 4 3 3 1 359 357 357 358 358 359 359 358 357 356 357 360 2 3 4 9 14 16 14 10 7 7 8 9 9 8 7 6 4 3 2 2 2 3 3 3 3 3 2 1 360 359 358 357 356 354 353 351 348 345 341 337 333 329 325 320 314 310 311 318 323 327 331 333 333 332 331 329 329 328 329 327 325 323 321 320 320 319
15 13 12 11 9 7 5 3 1 359 358 359 359 358 358 357 356 354 356 358 0 2 3 5 7 9 9 5 4 4 6 7 7 6 5 4 2 0 360 1 1 2 2 3 4 4 3 3 1 0 0 360 359 358 357 355 353 349 346 342 336 330 323 315 309 308 315 324 331 335 337 338 336 333 331 329 328 327 327 326 324 321 319 319 318 316
20 16 14 14 12 9 5 1 358 358 360 0 0 0 360 358 355 353 354 356 357 358 360 2 2 3 3 1 0 1 3 4 5 6 6 5 2 358 358 359 360 0 0 1 2 3 3 2 2 2 2 2 1 0 358 356 355 353 352 349 345 339 328 316 308 315 335 342 344 344 343 340 337 334 332 330 329 327 325 324 322 320 318 318 316 315
20 18 15 12 11 9 7 2 358 358 360 1 1 2 3 1 357 353 352 352 353 354 356 358 0 1 2 1 359 359 1 1 2 5 8 9 5 0 358 358 359 0 0 2 2 3 3 3 4 4 4 3 2 360 358 355 354 354 355 356 355 352 345 336 330 339 356 356 351 345 341 338 336 334 332 330 329 327 325 324 322 320 319 317 315 314
19 17 15 12 10 7 5 3 1 360 1 2 2 1 0 359 357 354 350 349 350 351 351 353 357 1 4 3 1 360 0 360 360 1 6 8 6 1 357 356 358 0 2 4 5 6 4 5 7 9 7 4 1 359 357 354 352 353 355 358 0 0 359 358 359 1 3 359 351 344 339 336 335 333 331 330 328 327 326 324 322 320 318 316 314 313
19 16 15 14 12 9 5 3 2 2 3 3 1 357 352 352 353 354 351 350 350 350 349 348 352 358 3 1 0 1 1 360 359 360 3 6 4 360 355 355 356 359 2 4 6 6 5 6 9 12 12 6 1 358 355 353 352 353 355 359 2 3 3 2 2 2 1 356 350 345 341 338 336 335 333 332 330 328 326 323 321 318 316 314 313 311
17 15 14 14 13 11 9 6 4 3 2 0 357 353 349 350 353 355 354 353 352 351 350 350 351 354 1 359 358 359 0 360 359 358 359 2 2 359 356 354 355 359 1 1 2 3 4 4 6 9 11 7 2 358 355 354 355 357 359 2 3 3 2 1 360 359 357 353 351 349 346 343 340 338 336 334 332 330 327 325 323 320 318 316 314 313
15 13 13 13 13 12 11 8 6 3 0 358 356 354 354 356 359 360 358 355 353 353 354 353 352 354 359 359 356 356 358 359 357 356 355 357 359 359 357 356 357 360 2 0 360 1 3 2 4 6 8 5 0 356 355 355 358 1 5 6 7 6 4 3 0 358 357 355 354 352 350 347 344 342 339 337 334 333 330 329 327 326 324 322 321 319
17 16 13 10 10 12 14 11 8 4 0 360 0 1 1 2 2 2 0 356 354 354 357 355 353 351 352 352 352 354 356 357 356 353 350 351 355 359 358 357 357 358 0 360 359 360 2 3 4 5 4 0 356 354 354 355 358 1 5 7 7 6 4 3 1 360 358 356 354 351 349 346 343 340 337 335 334 333 333 332 331 332 332 332 332 331
23 21 17 10 7 9 17 17 12 7 3 3 4 5 5 4 2 2 1 359 357 358 360 358 355 349 343 345 348 351 352 353 353 350 348 347 351 356 357 358 356 356 357 359 360 360 360 2 4 4 1 357 354 353 353 354 356 358 0 1 1 0 359 358 357 356 355 353 351 348 345 343 339 336 334 333 332 333 333 334 335 336 337 337 337 337
31 28 22 12 4 3 14 21 17 10 6 5 4 3 3 3 3 3 3 1 360 358 356 355 353 347 339 339 341 344 348 348 349 348 346 344 346 351 355 356 356 355 356 357 359 360 360 2 4 3 360 355 353 353 354 354 355 356 357 356 355 354 352 351 351 350 349 347 345 343 340 338 336 334 333 333 332 333 334 335 336 337 336 336 335 334
35 31 25 15 4 360 8 21 20 14 8 5 4 3 2 1 1 2 3 1 359 354 349 346 343 340 336 334 333 338 345 345 346 347 344 341 342 347 352 354 354 353 354 356 357 359 1 4 6 6 3 359 355 354 354 354 355 356 355 354 353 351 350 349 348 346 345 343 341 340 338 337 336 336 336 336 336 335 335 336 336 335 333 332 331 330
38 32 26 18 8 2 6 16 19 15 9 5 5 5 3 359 358 358 358 356 353 348 343 339 336 333 331 328 332 339 346 346 346 346 342 338 338 343 349 351 351 350 350 351 354 357 360 3 6 8 7 1 356 354 354 354 354 354 354 354 352 351 350 349 347 346 344 342 341 340 340 339 339 339 339 340 340 339 338 337 335 334 332 330 329 329
40 33 30 26 18 10 8 13 14 11 6 4 5 6 3 358 354 352 351 349 346 342 339 334 330 329 328 327 331 341 350 349 347 344 340 337 338 342 346 348 348 346 345 346 351 356 359 1 5 7 6 359 355 354 354 354 354 354 353 353 352 351 350 349 348 346 346 345 345 345 344 343 343 342 342 341 340 339 337 335 334 332 331 330 329 328
43 37 33 32 27 22 16 15 14 9 5 5 7 7 4 356 350 346 344 343 340 336 332 327 325 326 328 328 336 347 356 354 350 345 339 336 337 339 343 345 346 344 342 342 347 352 356 359 2 4 3 359 357 356 355 355 354 354 353 353 352 352 351 350 350 349 349 350 349 348 346 345 343 343 341 340 339 337 335 334 332 331 330 329 329 329
45 39 35 32 30 28 25 23 18 12 7 6 6 7 6 1 353 346 342 339 335 331 328 327 329 332 333 334 341 352 0 1 358 352 344 338 335 336 340 344 344 342 339 338 342 347 351 354 357 359 0 1 1 360 356 355 355 354 354 353 353 352 352 352 352 351 351 350 349 348 346 344 343 342 341 340 338 337 335 334 333 331 330 330 331 332
43 39 35 32 30 29 28 26 22 16 10 6 6 8 11 12 8 358 350 346 342 338 336 336 339 341 343 342 345 351 0 4 2 357 350 340 333 334 338 342 343 340 335 335 339 342 345 348 351 354 356 360 2 1 357 355 354 354 354 354 353 353 352 352 352 352 351 349 348 347 345 344 343 342 341 340 339 337 336 335 334 333 333 334 335 337
42 39 37 34 32 31 30 28 26 22 17 11 8 9 12 15 14 10 6 3 359 353 349 347 347 347 346 346 345 349 356 1 1 358 351 340 332 332 337 342 343 339 333 333 337 340 341 342 345 348 351 355 358 359 357 354 353 353 354 354 353 353 352 352 352 351 350 349 348 347 346 345 344 343 342 341 340 339 338 337 336 336 336 339 342 341
41 39 37 36 35 34 33 31 29 27 23 18 13 11 11 12 13 12 11 8 4 358 354 352 349 347 346 347 345 346 351 355 358 357 351 340 332 332 337 342 342 338 333 332 335 337 337 337 339 343 346 351 355 357 357 353 351 351 352 352 353 352 352 352 351 350 349 349 348 347 347 346 345 345 344 343 342 342 341 340 339 340 340 343 344 342
42 40 39 38 38 38 37 34 31 28 26 22 18 15 13 13 15 15 13 6 1 358 356 353 349 346 346 346 344 343 346 351 355 354 350 341 332 331 337 341 341 338 334 331 332 333 333 333 336 340 343 348 352 355 356 353 351 350 350 351 352 352 352 351 350 350 349 348 348 347 347 346 346 346 345 345 344 344 343 343 342 342 343 345 346 345
45 43 42 40 39 38 37 36 33 29 25 23 22 20 18 18 19 17 10 3 360 358 358 354 349 345 344 341 338 339 345 350 353 352 351 343 335 335 338 340 341 340 336 332 331 332 333 335 338 340 342 346 349 352 355 354 352 351 350 351 351 352 352 351 350 349 349 348 348 348 348 347 347 347 346 346 345 345 345 344 344 344 345 347 348 348
44 44 44 41 38 35 34 33 33 31 27 24 23 23 23 23 22 17 9 6 4 1 358 354 350 346 341 337 335 339 347 351 352 351 352 345 339 338 339 341 342 342 339 335 334 336 338 339 340 341 342 344 347 350 353 353 352 351 350 351 351 352 352 351 350 349 348 348 348 348 348 347 347 347 347 346 346 346 345 345 345 346 347 348 348 347
35 36 37 36 34 32 31 30 30 30 28 27 26 27 27 26 23 18 13 11 9 4 357 353 349 346 342 340 339 342 348 350 351 352 352 348 342 340 340 341 343 344 343 340 338 338 337 337 339 340 341 343 345 348 351 351 351 350 350 350 351 351 351 350 349 349 349 348 348 347 347 347 347 347 347 347 346 346 346 346 347 347 347 347 346 346
29 31 32 32 30 28 27 27 26 26 26 26 26 26 26 25 23 19 17 15 12 7 359 352 349 348 346 346 344 344 345 344 348 352 354 348 341 339 340 339 340 342 344 343 340 333 331 333 335 337 339 341 343 346 349 349 349 349 349 349 349 350 350 350 349 349 349 348 348 347 347 347 347 348 348 347 347 347 347 347 348 348 347 346 345 344
28 30 30 29 27 25 24 23 22 21 21 22 23 24 23 22 21 19 17 16 14 10 3 356 351 349 348 347 343 337 336 338 345 352 354 348 341 339 340 338 338 340 343 342 337 328 320 326 330 332 336 338 341 344 347 348 349 349 349 348 348 348 348 349 350 349 348 347 347 347 347 347 347 348 349 349 349 348 348 348 348 348 347 346 344 343
29 29 28 26 25 23 23 21 19 18 18 18 19 20 20 20 20 19 18 17 16 13 8 1 353 348 346 343 340 337 336 339 347 353 355 351 344 340 341 340 339 340 341 341 338 331 322 320 324 328 332 335 338 341 344 346 348 348 348 347 346 346 347 349 349 349 348 347 347 346 347 347 347 349 351 351 350 349 349 349 349 349 349 347 345 343
28 27 25 24 23 22 21 20 19 17 16 15 15 16 17 18 18 18 19 19 18 17 13 6 358 349 343 341 340 339 339 344 351 356 356 353 347 341 341 341 341 340 339 339 338 335 328 325 326 328 330 334 337 340 343 345 346 347 347 346 346 345 346 348 348 348 347 346 346 346 346 347 347 348 350 351 350 350 349 349 350 350 350 348 346 345
29 27 25 23 22 21 20 19 18 17 15 13 13 13 14 15 16 17 18 19 20 21 19 16 9 1 351 343 339 338 338 347 355 0 1 356 350 345 342 342 342 341 339 337 337 336 332 331 331 331 331 333 336 339 342 343 344 344 345 345 345 344 345 347 348 348 347 347 347 346 346 347 347 348 350 351 351 350 349 350 350 351 351 351 349 346
30 28 26 23 21 20 18 17 16 15 14 12 11 11 13 14 15 17 18 20 22 23 25 25 23 17 9 359 349 342 342 351 360 5 5 1 357 351 345 343 344 344 341 338 337 335 332 331 332 334 335 336 337 338 339 341 342 343 344 344 344 344 345 347 349 349 348 348 347 347 346 346 346 348 350 352 352 352 352 352 352 352 352 351 351 349
30 27 25 23 21 19 17 16 15 14 12 10 9 9 10 12 14 16 19 22 25 27 28 30 30 28 22 15 7 1 358 1 5 8 8 6 3 358 349 346 347 348 344 340 337 335 332 331 332 336 339 339 338 337 337 340 341 343 342 342 341 342 344 347 349 350 349 348 347 346 346 345 346 347 350 351 353 354 355 356 355 354 353 352 352 353
28 25 23 22 20 19 17 15 14 12 11 9 7 7 8 10 12 15 18 22 25 27 27 28 29 27 24 21 17 14 11 10 10 10 10 9 6 2 354 349 348 348 347 344 339 335 333 331 333 335 337 336 337 337 338 340 341 341 339 339 340 342 344 347 349 349 349 348 347 346 346 346 346 347 349 350 351 352 353 354 354 354 352 352 353 354
25 23 21 19 18 17 16 14 13 12 11 10 9 8 8 9 12 15 18 21 23 25 24 23 22 21 19 19 19 18 17 15 13 11 10 9 7 4 358 352 348 348 348 348 346 342 336 331 330 330 331 331 332 335 339 342 342 340 338 338 340 343 345 346 348 349 349 348 348 347 346 346 347 347 348 349 349 349 348 348 349 350 350 350 350 352
22 21 20 18 18 18 17 15 14 14 13 12 12 11 10 10 11 14 17 21 23 23 23 21 19 17 16 17 18 18 18 16 14 12 9 8 6 3 360 355 351 349 349 350 350 348 343 335 330 328 327 328 331 335 339 342 342 341 340 340 340 340 341 343 345 347 348 348 347 346 345 346 346 347 347 347 347 346 345 345 345 346 347 348 347 347
19 18 18 17 18 18 17 16 16 16 16 15 14 13 12 10 8 8 11 16 19 21 21 19 16 14 13 14 16 17 16 15 13 11 8 6 4 1 360 358 355 352 351 350 351 350 348 342 336 333 331 331 333 337 339 341 341 342 342 340 336 333 334 339 344 346 347 348 348 347 346 345 345 345 346 346 345 345 345 344 344 345 346 347 347 345
17 15 15 16 16 15 15 15 16 17 17 17 15 13 11 9 6 5 6 8 10 12 14 12 8 4 2 5 10 13 13 13 11 10 8 5 2 0 359 359 358 356 354 351 349 349 349 347 343 339 337 336 337 338 339 340 342 343 343 340 337 336 338 341 345 346 347 347 347 347 348 346 344 344 343 343 343 345 345 346 346 345 345 346 348 348
14 13 14 15 15 14 13 13 13 14 15 16 14 13 12 11 9 6 5 4 5 6 8 7 4 359 356 356 358 2 5 7 8 8 6 4 2 360 359 360 0 359 356 352 348 347 347 348 346 344 344 343 342 340 339 341 342 344 344 343 342 341 341 340 342 344 346 346 346 347 346 344 342 341 341 342 343 344 346 347 348 347 347 347 347 348
9 9 12 14 14 14 13 12 11 11 12 12 11 10 11 11 10 8 6 5 5 6 6 5 2 359 356 354 352 352 354 358 2 3 4 2 1 360 359 359 0 0 359 354 349 345 344 344 344 346 348 348 346 344 344 344 344 344 344 345 344 342 338 336 337 340 343 344 345 346 345 344 342 341 341 342 344 346 347 347 347 348 348 348 348 347
6 6 9 11 11 11 10 9 8 8 9 9 8 8 8 9 9 9 8 6 5 6 6 4 2 0 358 355 351 348 347 350 353 356 358 359 359 359 359 358 358 358 357 355 352 348 343 339 339 342 346 348 349 350 349 348 346 344 343 345 344 342 338 337 339 342 343 343 344 344 344 344 343 343 342 343 344 345 346 346 345 345 346 346 346 345
3 3 5 7 8 8 8 6 4 4 5 5 5 5 6 7 7 8 8 8 6 4 3 4 4 3 359 355 351 348 347 347 348 350 352 353 355 356 357 356 355 355 354 354 353 350 347 342 340 341 344 347 350 352 353 352 349 346 344 344 343 342 341 342 343 343 343 342 342 342 343 345 345 345 344 342 341 342 344 344 344 344 344 344 344 343
2 0 1 2 3 3 4 2 1 1 1 2 2 2 4 5 4 4 6 8 7 4 2 3 4 2 359 356 354 351 348 346 346 347 348 349 351 352 353 353 353 353 354 353 352 351 350 349 348 347 347 349 351 352 352 353 351 348 345 344 343 343 343 343 343 343 343 343 342 341 343 345 346 346 344 342 340 340 342 343 343 344 344 344 344 342
2 0 359 359 359 359 359 359 358 358 358 357 358 359 1 3 3 2 3 5 6 5 2 1 0 359 358 357 355 353 350 347 346 346 347 347 348 349 349 350 350 350 352 353 353 352 353 355 357 357 357 356 355 353 351 352 352 349 346 344 344 343 342 341 342 343 342 342 342 342 343 344 343 341 340 339 339 339 339 340 341 343 344 344 344 342
6 3 360 359 358 357 356 356 355 355 355 354 354 355 357 0 2 2 2 3 5 5 3 0 358 356 355 355 354 353 351 349 347 347 347 348 348 348 348 349 349 349 350 352 354 355 356 359 3 6 5 2 358 355 352 351 350 349 348 347 346 344 341 341 341 342 342 341 342 343 344 344 343 341 338 337 337 337 337 338 339 341 343 344 343 342
11 7 3 2 0 358 356 355 354 354 354 352 352 352 353 356 358 0 2 3 4 4 3 360 357 355 354 353 352 352 351 349 348 348 348 348 348 348 348 348 349 349 350 352 354 355 356 356 359 3 6 5 2 359 355 352 350 349 349 349 347 345 343 341 341 341 341 340 341 342 343 345 345 344 341 339 337 336 337 337 338 339 341 343 342 341
15 12 9 7 4 1 358 356 355 354 353 352 351 351 351 353 355 357 360 2 2 2 1 359 357 355 353 351 351 351 350 348 347 347 347 347 348 348 348 349 349 350 351 352 354 355 354 352 351 352 353 358 1 1 359 355 352 350 348 347 347 346 344 341 340 341 341 340 340 341 343 345 346 345 343 340 339 338 338 338 337 337 338 340 341 340
Height
806 805 804 803 802 801 801 800 798 797 796 795 794 793 792 791 790 789 788 787 785 784 783 782 782 780 779 778 777 777 777 776 775 774 773 772 771 770 768 767 766 765 764 763 762 761 761 760 759 757 756 756 755 754 752 751 750 749 747 746 744 743 742 741 740 740 740 740 740 739 738 737 736 735 735 735 734 733 733 732 732 731 731 730 729 729
805 804 804 803 802 801 800 800 799 797 796 795 794 793 792 791 789 788 787 786 786 785 783 782 781 780 779 778 777 777 777 776 775 774 773 772 771 769 768 767 766 765 764 763 762 761 760 759 758 757 756 755 754 753 752 751 750 748 747 745 744 742 741 740 740 740 740 740 740 739 738 737 736 735 734 734 733 733 732 732 731 730 730 729 729 728
805 804 803 802 802 801 800 800 799 798 797 796 795 793 792 791 789 788 787 786 785 785 784 783 782 780 779 778 777 777 777 776 775 773 772 771 770 769 768 767 766 765 763 762 761 760 759 758 757 756 756 755 754 752 751 750 749 748 746 745 743 742 740 740 740 740 740 740 739 738 737 737 736 735 734 734 733 732 732 731 730 730 729 729 728 727
805 804 803 803 802 802 801 800 799 798 797 796 795 794 792 791 790 788 787 787 786 785 784 783 782 781 779 778 777 777 777 776 774 773 772 771 770 769 767 767 765 764 763 762 761 760 759 758 757 756 755 754 753 752 751 749 748 747 745 744 742 740 739 740 740 740 740 739 738 738 737 736 736 735 734 733 732 732 731 730 730 729 729 728 727 726
806 805 804 803 802 802 802 801 800 798 797 796 795 794 792 791 790 789 788 787 786 785 783 782 782 781 780 779 778 777 777 775 774 773 772 771 770 768 767 766 765 764 763 762 760 759 758 757 756 755 754 753 752 751 749 748 747 746 744 743 742 740 739 739 740 740 739 739 738 737 737 736 735 734 733 732 732 731 731 730 730 729 728 727 726 725
806 806 805 804 803 803 802 801 800 799 797 796 795 794 793 792 790 789 788 787 786 785 784 782 782 781 780 779 778 777 776 775 774 773 772 771 769 768 767 766 765 764 762 761 760 759 758 757 756 754 753 752 751 749 748 747 746 745 743 742 741 740 739 739 739 739 739 738 738 737 736 735 735 734 733 732 732 731 730 730 729 729 728 727 726 725
807 807 806 805 804 804 802 802 801 799 798 797 795 794 793 792 790 789 789 788 787 786 784 783 782 781 780 779 778 777 776 775 773 772 772 770 769 768 767 766 765 764 762 761 760 759 757 757 755 754 753 751 750 749 748 747 745 744 743 742 741 740 739 739 739 739 738 738 737 737 736 735 735 734 733 732 732 731 730 730 729 728 727 726 725 725
807 807 806 806 805 804 803 802 801 800 798 797 796 795 794 792 791 790 789 788 787 786 785 783 782 781 780 779 779 777 776 775 774 772 772 770 769 768 767 766 765 764 763 762 760 759 758 757 755 754 752 752 750 749 748 747 745 744 743 742 741 739 739 738 738 738 737 737 737 736 735 735 734 733 733 732 731 731 730 729 728 727 727 726 725 724
808 807 807 806 805 804 803 802 802 800 799 798 797 796 795 793 792 790 789 788 787 786 785 784 782 781 781 780 779 778 777 776 775 773 772 771 770 769 768 767 765 764 763 762 761 759 758 757 756 754 753 752 750 749 748 747 746 744 743 742 740 739 738 737 737 737 737 737 736 736 735 735 734 733 732 732 731 730 729 728 727 727 726 725 724 723
808 808 807 807 806 805 804 803 802 801 800 799 798 797 796 795 793 792 790 789 788 787 786 785 784 782 782 780 779 778 777 776 775 774 773 772 771 769 768 767 765 764 763 762 761 759 758 757 756 754 753 752 751 749 748 747 746 745 743 741 740 738 737 737 736 736 736 736 736 735 735 734 733 732 732 731 730 729 729 728 727 726 725 724 723 722
809 808 808 807 807 806 805 804 803 802 800 799 798 797 797 796 794 793 792 790 789 788 787 786 785 784 783 781 780 779 777 776 775 774 773 772 770 769 768 767 765 764 763 762 760 759 758 757 756 754 753 752 751 749 748 747 746 745 743 742 740 738 737 736 736 736 735 735 735 735 734 733 733 732 731 730 730 729 728 727 726 725 724 724 723 722
810 809 809 808 807 806 805 804 803 802 801 800 798 797 797 796 796 795 793 792 791 789 788 787 786 785 784 783 781 780 778 777 776 774 772 771 770 769 767 766 764 763 762 761 760 759 758 757 755 754 753 752 751 750 749 747 746 745 743 742 740 739 738 737 736 735 735 735 735 734 734 733 732 732 731 730 729 728 727 727 726 725 724 723 722 721
810 810 809 808 808 807 806 805 803 802 802 801 800 799 798 797 797 796 795 793 792 791 790 788 787 786 785 784 782 781 779 778 776 775 773 772 771 769 768 766 765 763 762 760 759 758 757 756 755 754 753 752 751 750 749 748 747 745 744 742 741 740 738 737 737 736 735 735 734 734 733 733 732 731 730 729 728 727 727 726 725 724 723 722 721 720
811 810 809 809 808 807 807 806 805 804 803 803 802 802 800 799 797 796 795 794 793 792 790 789 787 787 786 784 783 782 780 778 777 775 774 773 772 771 769 767 766 764 762 761 760 758 758 757 755 754 753 752 752 751 750 748 747 746 744 743 742 741 739 738 737 737 736 735 734 734 733 732 732 731 730 729 728 727 726 725 724 723 722 721 720 718
811 811 810 810 809 808 808 807 807 806 805 804 803 802 801 799 798 797 796 795 794 792 791 789 788 787 786 785 783 782 781 779 777 776 775 774 773 772 770 768 766 764 763 762 760 759 758 757 756 754 753 752 752 752 750 749 747 746 744 743 742 741 740 739 738 737 736 735 734 734 733 732 731 730 729 728 727 727 726 724 723 722 721 720 719 717
812 812 811 811 810 810 809 808 808 807 806 805 804 802 802 800 799 798 797 796 795 793 792 790 788 787 786 785 784 783 782 780 779 777 776 774 773 772 771 769 767 765 764 762 761 760 758 757 756 755 754 753 753 752 751 749 748 746 745 744 742 741 740 739 738 737 736 735 734 734 733 732 731 730 729 728 727 726 725 724 722 722 720 719 718 717
813 813 812 812 811 811 810 809 809 808 807 805 804 803 802 802 801 799 798 797 796 795 794 792 791 789 787 786 784 784 783 782 780 779 777 775 774 772 771 770 768 766 764 763 762 761 759 758 757 756 755 754 754 753 751 750 748 747 745 744 743 742 741 740 738 737 737 735 734 733 733 732 731 730 729 728 727 725 724 723 722 721 719 719 717 716
814 814 814 813 812 811 811 810 809 808 807 806 804 803 802 802 801 800 799 798 797 796 795 794 793 792 790 788 786 785 784 783 781 780 778 776 774 773 772 770 769 767 765 764 763 762 760 759 757 756 755 755 754 753 752 750 749 747 746 745 744 742 741 740 739 737 737 736 735 734 733 732 731 729 728 727 726 724 723 722 721 720 719 717 717 715
816 815 815 814 813 812 811 810 810 809 808 807 805 804 803 802 801 800 800 799 798 797 797 795 794 793 792 790 788 786 785 784 782 780 778 777 775 773 772 770 769 767 766 764 763 762 761 759 758 757 756 755 754 753 752 751 749 748 747 745 744 743 742 740 739 738 737 736 735 734 732 731 730 729 727 726 725 724 722 721 720 719 718 717 716 715
817 816 816 815 814 813 812 811 811 810 809 807 806 805 803 802 801 801 800 799 799 798 797 796 795 793 792 791 789 787 786 784 783 781 779 777 775 774 772 771 769 768 766 765 764 762 761 760 758 757 756 755 754 754 752 751 750 748 747 746 744 743 742 741 739 738 737 736 735 733 732 731 730 728 727 726 724 723 722 721 720 719 717 716 715 714
817 817 817 816 815 814 813 812 812 811 810 808 807 805 804 803 802 801 800 799 799 798 797 796 795 794 792 791 789 788 787 785 784 782 780 777 776 774 773 772 770 768 767 765 764 762 761 760 758 757 756 756 755 754 753 752 750 749 747 746 745 743 742 741 739 738 737 736 734 733 732 730 729 728 727 725 724 723 722 720 719 718 717 716 714 713
818 818 818 817 816 815 814 813 812 811 810 808 807 806 805 804 803 802 801 800 799 798 797 796 795 794 793 791 790 788 787 786 785 783 781 778 776 774 773 772 771 769 767 766 764 762 761 760 758 757 757 756 755 754 753 752 750 749 747 746 745 743 742 740 739 738 736 735 734 732 731 730 729 727 726 725 723 722 721 720 719 717 716 715 713 712
819 819 818 817 817 816 815 814 813 812 810 809 808 807 806 805 804 803 802 801 800 798 797 796 794 793 792 791 790 789 787 787 785 784 782 779 777 775 773 772 771 769 768 766 764 762 761 760 758 758 757 756 755 754 753 752 750 749 747 746 745 743 742 740 739 737 736 735 733 732 731 730 728 727 726 724 723 722 721 719 718 717 715 714 713 712
820 819 819 818 817 816 815 814 813 812 811 810 808 807 806 805 804 803 802 801 800 798 797 795 794 792 792 791 789 788 787 787 785 784 782 780 778 776 774 773 772 770 768 766 764 762 761 759 759 758 757 756 755 754 752 752 750 749 747 746 744 743 742 740 739 737 736 735 733 732 731 729 728 727 725 724 723 722 720 719 717 716 715 713 712 711
821 820 819 819 818 817 816 815 814 813 812 810 808 807 806 805 804 803 802 800 799 797 796 794 793 792 791 790 789 788 787 787 786 785 783 781 779 777 775 774 772 771 768 766 764 762 761 759 759 758 757 756 755 753 752 751 750 749 747 746 744 743 742 740 739 737 736 735 733 732 730 729 727 726 725 724 722 721 720 718 717 716 714 713 712 711
821 821 820 819 818 817 816 815 814 813 812 811 809 807 806 804 803 802 800 799 798 797 795 794 793 792 791 790 789 788 787 787 786 785 784 782 779 777 775 774 773 771 769 766 764 762 761 760 759 758 757 756 754 753 752 751 750 749 747 746 744 743 741 740 738 737 736 734 733 731 730 729 727 726 725 723 722 721 719 718 717 715 714 712 711 710
822 821 820 819 818 817 816 815 814 813 812 811 810 808 806 804 802 801 800 799 799 798 797 795 794 792 791 790 790 789 788 787 786 785 784 782 780 778 776 775 773 772 769 767 765 763 762 761 759 758 757 756 754 753 752 751 750 748 747 746 744 742 741 740 738 737 735 734 732 731 730 728 727 726 724 723 722 720 719 718 716 715 713 712 711 710
821 820 820 818 817 817 816 815 814 813 812 811 810 808 807 805 803 802 802 802 801 799 798 797 796 795 793 792 791 790 789 788 787 785 784 782 781 779 777 776 774 772 770 767 765 763 762 761 760 758 757 756 754 753 752 750 749 748 747 745 744 742 741 740 738 737 735 734 732 731 729 728 727 725 724 722 721 720 719 717 716 715 713 712 711 709
821 820 819 818 817 817 816 815 814 813 812 811 810 809 807 806 805 805 804 803 802 801 800 799 798 797 795 794 792 791 789 788 787 786 784 783 781 780 778 777 775 773 771 767 764 762 761 761 760 758 757 756 754 753 752 750 749 747 746 745 743 742 741 739 738 736 735 733 732 731 729 727 726 725 723 722 721 720 718 717 716 714 713 712 710 709
821 820 819 818 817 817 816 815 814 813 812 812 811 809 808 807 807 806 805 804 803 802 801 800 799 798 796 794 792 791 790 789 788 787 785 783 782 780 779 777 776 774 772 769 766 762 760 759 759 758 757 756 755 753 752 750 749 747 746 744 742 741 740 739 737 736 734 733 732 730 729 727 726 724 723 722 721 719 718 717 716 714 713 712 710 709
821 820 819 818 817 817 816 815 814 813 812 812 811 810 808 808 807 806 805 804 803 802 802 801 800 799 797 796 794 792 791 790 788 787 786 785 783 782 780 778 777 775 774 772 770 766 762 760 758 757 757 756 755 753 752 751 749 748 746 744 742 741 740 738 737 735 734 732 731 730 728 727 726 724 723 722 720 719 718 717 716 714 713 712 710 709
821 820 819 818 818 817 816 815 814 813 812 812 811 810 809 808 807 806 805 805 804 803 802 802 801 800 799 798 797 795 793 791 790 788 787 786 784 783 781 780 778 776 775 774 773 771 767 763 760 758 757 756 755 754 753 752 750 748 747 745 743 742 740 738 737 735 733 732 731 730 728 727 725 724 722 721 720 719 718 717 716 714 713 712 710 709
821 820 820 819 818 817 816 815 814 813 812 812 811 810 809 808 807 807 806 805 804 803 802 802 801 800 799 798 797 796 794 792 791 789 788 787 785 783 782 780 779 777 775 774 773 772 770 767 763 760 758 757 756 754 753 752 751 749 748 746 744 742 740 738 737 735 734 732 731 729 728 727 725 723 722 721 720 719 718 717 716 714 713 712 711 709
821 820 820 819 818 817 816 816 815 814 813 812 811 810 809 808 807 806 806 805 804 803 802 802 801 800 799 798 797 796 794 793 792 790 789 787 786 784 782 781 779 777 776 774 773 771 770 768 766 762 760 757 756 755 754 752 751 750 749 747 745 743 741 739 737 736 734 733 731 729 728 726 725 723 722 721 720 719 718 717 716 715 713 712 711 709
821 820 820 819 818 817 817 816 815 814 813 812 811 810 809 808 807 807 806 805 804 803 802 802 801 800 799 798 797 796 795 793 792 791 789 788 787 785 783 782 780 778 777 775 773 772 770 768 766 764 762 758 756 755 754 753 752 751 749 747 746 744 742 740 738 737 735 733 732 730 728 727 725 723 722 721 720 719 718 717 716 714 713 712 711 710
822 821 820 819 819 818 817 816 815 814 813 813 812 811 810 808 807 807 806 805 804 803 802 802 801 801 800 799 798 797 795 794 792 791 790 788 787 786 784 782 781 779 778 776 774 772 771 769 767 765 763 760 758 755 754 753 752 750 749 747 746 744 743 741 740 738 736 734 732 730 729 727 726 724 722 721 720 719 718 717 715 714 713 712 711 710
822 822 821 821 820 819 818 817 816 815 814 813 812 811 810 809 808 807 806 805 804 803 802 802 801 800 800 799 798 797 796 794 793 792 790 789 787 786 785 783 782 780 779 777 775 774 772 770 767 765 763 762 760 758 755 753 751 750 749 747 746 744 743 741 740 738 737 735 733 732 730 728 727 725 723 721 720 718 717 716 715 714 713 712 710 709
823 823 822 822 821 820 819 818 817 817 816 814 813 812 811 809 808 807 806 805 804 803 802 801 801 800 800 799 798 797 796 795 793 792 791 789 788 787 785 784 782 781 780 778 777 775 773 771 769 767 764 763 761 760 757 755 753 751 749 747 746 745 743 742 740 739 737 736 734 732 731 729 727 725 723 722 720 718 717 716 714 713 712 711 710 709
825 824 823 823 822 821 820 819 819 818 817 815 814 812 811 810 808 807 806 805 804 803 802 801 801 800 799 798 797 797 796 794 793 792 790 789 788 787 785 784 782 781 779 778 777 775 774 772 771 769 766 764 762 760 758 757 755 752 750 747 745 744 743 742 741 739 738 736 734 732 731 729 727 726 724 722 721 719 717 716 715 713 712 711 709 708
826 825 825 824 823 822 822 821 820 818 817 816 814 813 811 809 808 807 806 804 803 802 802 801 800 799 799 798 797 796 795 794 793 792 790 789 788 787 786 784 782 781 779 777 776 775 774 773 771 770 768 766 764 761 759 758 756 754 752 749 746 744 743 742 741 740 738 737 735 733 731 729 728 726 725 723 722 720 719 717 716 714 713 712 710 708
827 826 825 825 824 823 822 821 820 819 817 816 814 812 811 809 807 806 805 804 803 802 801 800 799 798 798 797 797 796 795 794 792 792 790 789 788 787 785 784 782 781 779 777 776 775 774 772 771 769 768 767 765 763 761 759 758 756 754 752 749 747 745 743 742 740 739 737 736 734 732 730 728 727 725 724 722 721 720 718 717 715 714 713 711 710
827 827 826 825 824 823 822 821 820 819 817 816 815 813 812 810 809 807 806 804 803 802 801 800 798 797 797 796 796 795 794 793 792 791 790 789 788 786 785 784 782 780 779 777 776 774 773 772 771 769 768 767 765 763 761 760 758 757 755 753 750 747 745 743 742 741 739 737 736 734 733 731 729 727 726 724 723 722 720 719 717 716 715 713 712 711
828 827 827 826 825 824 822 821 820 819 817 816 815 814 812 811 810 809 807 806 804 803 802 801 800 798 797 796 794 793 793 792 792 791 790 789 787 786 785 783 782 780 779 777 775 774 772 772 771 769 768 767 766 764 762 760 758 756 755 753 751 748 746 743 742 741 740 738 737 735 734 732 730 728 727 725 723 722 720 719 718 717 715 714 712 711
828 827 827 826 824 823 822 821 820 819 818 817 816 815 813 812 811 810 808 807 805 804 802 802 800 799 798 796 794 793 792 792 791 790 790 789 787 786 784 783 781 780 779 777 776 774 772 771 770 769 768 767 766 764 762 760 758 757 755 754 752 751 749 747 744 742 740 738 737 736 734 732 731 729 727 725 724 722 720 719 717 716 715 714 712 711
828 827 827 825 824 823 822 822 821 820 819 818 817 815 814 813 812 811 809 808 806 805 804 802 801 800 799 797 796 794 792 791 790 789 789 788 787 786 785 783 781 780 779 777 777 775 773 771 770 768 768 767 766 765 763 761 759 757 755 754 752 751 750 748 746 743 742 739 738 736 735 733 731 729 727 725 724 722 721 719 717 716 715 713 712 710
828 827 827 826 825 824 823 822 821 820 819 818 817 816 815 813 812 811 810 809 807 806 805 804 803 802 801 799 797 796 793 792 790 789 788 787 786 785 784 783 782 780 779 778 777 775 774 772 770 769 767 766 765 764 763 762 759 757 755 754 752 751 749 747 746 744 743 741 739 737 735 733 732 730 728 726 724 722 721 719 718 717 715 713 712 710
829 828 827 826 825 824 823 822 822 821 819 819 818 817 816 814 813 812 811 809 808 807 806 805 804 803 802 801 800 798 796 794 792 790 788 787 786 785 784 783 782 781 779 778 777 775 774 772 771 769 768 766 765 763 762 761 760 758 756 754 752 751 749 748 746 745 743 742 740 738 736 733 732 730 729 727 725 723 721 720 718 717 715 713 712 710
830 829 828 827 826 825 824 823 822 821 820 819 818 817 816 815 814 813 812 810 809 808 807 806 805 804 803 802 801 800 798 796 794 792 790 788 787 785 784 782 781 780 779 778 777 775 774 772 771 770 768 767 766 764 762 761 760 759 757 755 753 752 750 748 747 745 744 742 741 739 737 735 733 732 730 727 725 723 721 720 718 717 715 713 712 710
831 830 829 828 827 826 825 824 823 822 821 819 818 817 817 816 815 814 813 811 810 809 808 807 806 805 803 802 801 800 799 797 796 794 792 790 788 786 784 782 781 779 778 777 776 774 773 772 771 770 769 768 767 765 763 762 760 759 757 756 754 752 751 749 747 745 744 742 741 739 738 737 735 733 731 729 727 724 722 720 718 716 715 713 712 710
831 831 830 829 828 827 826 825 824 823 822 820 819 818 817 816 815 814 813 812 811 810 809 808 807 806 804 803 802 801 800 798 797 795 793 791 790 787 786 783 781 779 777 775 774 772 771 770 770 769 769 769 767 766 764 762 760 758 757 756 755 753 751 749 747 746 744 743 741 739 738 737 736 734 732 730 727 725 722 720 718 716 714 713 711 710
832 831 830 829 828 827 827 826 825 824 823 822 821 819 818 817 816 814 813 812 811 810 810 809 808 807 806 804 803 802 801 799 798 796 794 793 791 789 787 785 783 781 778 776 774 772 771 769 768 767 767 768 767 767 765 763 761 758 757 756 755 753 752 750 748 747 745 743 742 740 738 737 735 734 732 730 728 726 723 721 718 716 714 712 711 709